| time (UTC) | temp F | wind direction | speed MPH | gust MPH | rain 1hr in | rain 24hr in | rain mn in | humidity % | barometer mb |
| 20260505002515 | 69 | 123 | 0.0 | 0.0 | 0.00 | 0.00 | 0.00 | 50 | 1005.4 |
| 20260505002015 | 69 | 163 | 1.0 | 1.0 | 0.00 | 0.00 | 0.00 | 50 | 1005.5 |
| 20260505001511 | 69 | 172 | 1.0 | 3.0 | 0.00 | 0.00 | 0.00 | 49 | 1005.5 |
| 20260505001009 | 69 | 3 | 1.0 | 1.0 | 0.00 | 0.00 | 0.00 | 50 | 1005.4 |
| 20260505000506 | 69 | 160 | 1.0 | 1.0 | 0.00 | 0.00 | 0.00 | 49 | 1005.4 |
| 20260505000003 | 69 | 226 | 2.0 | 2.0 | 0.00 | 0.00 | 0.00 | 50 | 1005.2 |
| 20260504235500 | 70 | 189 | 1.0 | 1.0 | 0.00 | 0.00 | 0.00 | 50 | 1005.0 |
| 20260504234956 | 70 | 270 | 6.0 | 8.0 | 0.00 | 0.00 | 0.00 | 49 | 1004.9 |
| 20260504234454 | 70 | 133 | 3.0 | 3.0 | 0.00 | 0.00 | 0.00 | 48 | 1004.9 |
| 20260504233950 | 71 | 25 | 3.0 | 3.0 | 0.00 | 0.00 | 0.00 | 48 | 1005.0 |
| 20260504233446 | 71 | 214 | 5.0 | 7.0 | 0.00 | 0.00 | 0.00 | 48 | 1004.9 |
| 20260504232943 | 71 | 10 | 1.0 | 2.0 | 0.00 | 0.00 | 0.00 | 48 | 1004.7 |
| 20260504232440 | 72 | 165 | 4.0 | 5.0 | 0.00 | 0.00 | 0.00 | 47 | 1004.7 |
| 20260504231937 | 72 | 98 | 2.0 | 3.0 | 0.00 | 0.00 | 0.00 | 47 | 1004.6 |
| 20260504231433 | 72 | 229 | 4.0 | 5.0 | 0.00 | 0.00 | 0.00 | 45 | 1004.7 |
| 20260504230929 | 73 | 214 | 1.0 | 2.0 | 0.00 | 0.00 | 0.00 | 46 | 1004.9 |
| 20260504230426 | 72 | 261 | 1.0 | 1.0 | 0.00 | 0.00 | 0.00 | 46 | 1005.0 |
| 20260504225926 | 72 | 179 | 3.0 | 3.0 | 0.00 | 0.00 | 0.00 | 47 | 1005.2 |
| 20260504225422 | 72 | 179 | 4.0 | 5.0 | 0.00 | 0.00 | 0.00 | 49 | 1004.9 |
| 20260504224920 | 71 | 18 | 1.0 | 2.0 | 0.00 | 0.00 | 0.00 | 48 | 1005.1 |
| 20260504224416 | 71 | 164 | 2.0 | 2.0 | 0.00 | 0.00 | 0.00 | 49 | 1005.2 |
| 20260504223913 | 72 | 188 | 3.0 | 5.0 | 0.00 | 0.00 | 0.00 | 48 | 1005.3 |
| 20260504223408 | 72 | 259 | 2.0 | 2.0 | 0.00 | 0.00 | 0.00 | 49 | 1005.2 |
| 20260504222905 | 71 | 237 | 1.0 | 1.0 | 0.00 | 0.00 | 0.00 | 50 | 1005.1 |
| 20260504222402 | 71 | 145 | 4.0 | 7.0 | 0.00 | 0.00 | 0.00 | 49 | 1005.4 |
| 20260504221900 | 71 | 184 | 4.0 | 7.0 | 0.00 | 0.00 | 0.00 | 50 | 1005.5 |
| 20260504221356 | 71 | 245 | 3.0 | 5.0 | 0.00 | 0.00 | 0.00 | 49 | 1005.3 |
| 20260504220854 | 71 | 149 | 2.0 | 3.0 | 0.00 | 0.00 | 0.00 | 50 | 1005.3 |
| 20260504220350 | 71 | 155 | 1.0 | 2.0 | 0.00 | 0.00 | 0.00 | 53 | 1005.2 |
| 20260504215848 | 70 | 357 | 3.0 | 2.0 | 0.00 | 0.00 | 0.00 | 52 | 1005.3 |
| 20260504215344 | 70 | 204 | 3.0 | 5.0 | 0.00 | 0.00 | 0.00 | 52 | 1005.5 |
| 20260504214840 | 70 | 193 | 3.0 | 3.0 | 0.00 | 0.00 | 0.00 | 51 | 1005.3 |
| 20260504214337 | 71 | 291 | 2.0 | 3.0 | 0.00 | 0.00 | 0.00 | 49 | 1005.8 |
| 20260504213834 | 71 | 153 | 4.0 | 5.0 | 0.00 | 0.00 | 0.00 | 48 | 1005.4 |
| 20260504213330 | 71 | 190 | 4.0 | 5.0 | 0.00 | 0.00 | 0.00 | 48 | 1005.6 |
| 20260504212827 | 72 | 160 | 4.0 | 7.0 | 0.00 | 0.00 | 0.00 | 49 | 1005.6 |
| 20260504212323 | 73 | 96 | 0.0 | 0.0 | 0.00 | 0.00 | 0.00 | 47 | 1005.5 |
| 20260504211821 | 74 | 179 | 3.0 | 3.0 | 0.00 | 0.00 | 0.00 | 46 | 1005.6 |
| 20260504211317 | 73 | 109 | 3.0 | 3.0 | 0.00 | 0.00 | 0.00 | 45 | 1005.4 |
| 20260504210815 | 73 | 123 | 5.0 | 9.0 | 0.00 | 0.00 | 0.00 | 46 | 1005.7 |
| 20260504210312 | 74 | 264 | 4.0 | 5.0 | 0.00 | 0.00 | 0.00 | 45 | 1005.6 |
| 20260504205809 | 73 | 150 | 1.0 | 3.0 | 0.00 | 0.00 | 0.00 | 47 | 1005.6 |
| 20260504205306 | 72 | 1 | 3.0 | 7.0 | 0.00 | 0.00 | 0.00 | 46 | 1005.8 |
| 20260504204804 | 72 | 147 | 1.0 | 1.0 | 0.00 | 0.00 | 0.00 | 46 | 1006.0 |
| 20260504204303 | 73 | 189 | 3.0 | 6.0 | 0.00 | 0.00 | 0.00 | 45 | 1005.8 |
| 20260504203802 | 75 | 209 | 2.0 | 2.0 | 0.00 | 0.00 | 0.00 | 41 | 1006.0 |
| 20260504203258 | 74 | 104 | 2.0 | 2.0 | 0.00 | 0.00 | 0.00 | 43 | 1005.7 |
| 20260504202758 | 74 | 268 | 4.0 | 5.0 | 0.00 | 0.00 | 0.00 | 46 | 1005.9 |
| 20260504202256 | 74 | 188 | 3.0 | 5.0 | 0.00 | 0.00 | 0.00 | 42 | 1005.9 |
| 20260504201753 | 74 | 187 | 1.0 | 1.0 | 0.00 | 0.00 | 0.00 | 43 | 1006.1 |
| 20260504201250 | 74 | 238 | 2.0 | 2.0 | 0.00 | 0.00 | 0.00 | 41 | 1006.1 |
| 20260504200748 | 74 | 169 | 6.0 | 7.0 | 0.00 | 0.00 | 0.00 | 40 | 1005.9 |
| 20260504200243 | 75 | 208 | 5.0 | 7.0 | 0.00 | 0.00 | 0.00 | 43 | 1006.1 |
| 20260504195740 | 74 | 48 | 1.0 | 2.0 | 0.00 | 0.00 | 0.00 | 46 | 1006.2 |
| 20260504195236 | 73 | 216 | 1.0 | 2.0 | 0.00 | 0.00 | 0.00 | 41 | 1006.4 |
| 20260504194734 | 74 | 357 | 3.0 | 3.0 | 0.00 | 0.00 | 0.00 | 44 | 1006.3 |
| 20260504194229 | 74 | 310 | 3.0 | 5.0 | 0.00 | 0.00 | 0.00 | 42 | 1006.7 |
| 20260504193726 | 74 | 162 | 0.0 | 0.0 | 0.00 | 0.00 | 0.00 | 45 | 1006.6 |
| 20260504193223 | 75 | 260 | 5.0 | 7.0 | 0.00 | 0.00 | 0.00 | 43 | 1006.7 |
| 20260504192722 | 74 | 215 | 4.0 | 6.0 | 0.00 | 0.00 | 0.00 | 41 | 1006.7 |
| 20260504192220 | 73 | 331 | 4.0 | 7.0 | 0.00 | 0.00 | 0.00 | 42 | 1006.7 |
| 20260504191718 | 73 | 32 | 1.0 | 2.0 | 0.00 | 0.00 | 0.00 | 41 | 1006.9 |
| 20260504191215 | 74 | 170 | 7.0 | 8.0 | 0.00 | 0.00 | 0.00 | 42 | 1007.0 |
| 20260504190710 | 74 | 108 | 1.0 | 2.0 | 0.00 | 0.00 | 0.00 | 41 | 1006.7 |
| 20260504190206 | 73 | 152 | 3.0 | 3.0 | 0.00 | 0.00 | 0.00 | 47 | 1006.9 |
| 20260504185703 | 74 | 7 | 3.0 | 5.0 | 0.00 | 0.00 | 0.00 | 40 | 1007.0 |
| 20260504185159 | 73 | 74 | 3.0 | 3.0 | 0.00 | 0.00 | 0.00 | 46 | 1007.0 |
| 20260504184656 | 72 | 346 | 2.0 | 2.0 | 0.00 | 0.00 | 0.00 | 45 | 1007.4 |
| 20260504184151 | 72 | 314 | 4.0 | 7.0 | 0.00 | 0.00 | 0.00 | 46 | 1007.3 |
| 20260504183648 | 72 | 204 | 8.0 | 10.0 | 0.00 | 0.00 | 0.00 | 46 | 1007.4 |
| 20260504183145 | 72 | 285 | 1.0 | 2.0 | 0.00 | 0.00 | 0.00 | 44 | 1007.4 |
| 20260504182643 | 72 | 181 | 6.0 | 8.0 | 0.00 | 0.00 | 0.00 | 43 | 1007.3 |
| 20260504182140 | 71 | 97 | 8.0 | 11.0 | 0.00 | 0.00 | 0.00 | 42 | 1007.4 |
| 20260504181638 | 71 | 149 | 3.0 | 6.0 | 0.00 | 0.00 | 0.00 | 44 | 1007.5 |
| 20260504181135 | 71 | 187 | 6.0 | 10.0 | 0.00 | 0.00 | 0.00 | 44 | 1007.4 |
| 20260504180634 | 72 | 189 | 3.0 | 3.0 | 0.00 | 0.00 | 0.00 | 44 | 1007.6 |
| 20260504180132 | 71 | 93 | 2.0 | 2.0 | 0.00 | 0.00 | 0.00 | 44 | 1007.6 |
| 20260504175629 | 71 | 91 | 2.0 | 2.0 | 0.00 | 0.00 | 0.00 | 46 | 1007.7 |
| 20260504175126 | 71 | 224 | 5.0 | 7.0 | 0.00 | 0.00 | 0.00 | 44 | 1007.8 |
| 20260504174624 | 71 | 96 | 2.0 | 2.0 | 0.00 | 0.00 | 0.00 | 45 | 1007.6 |
| 20260504174120 | 71 | 163 | 1.0 | 1.0 | 0.00 | 0.00 | 0.00 | 47 | 1007.7 |
| 20260504173618 | 70 | 102 | 5.0 | 7.0 | 0.00 | 0.00 | 0.00 | 44 | 1007.8 |
| 20260504173115 | 70 | 178 | 1.0 | 1.0 | 0.00 | 0.00 | 0.00 | 45 | 1008.1 |
| 20260504172611 | 70 | 187 | 7.0 | 8.0 | 0.00 | 0.00 | 0.00 | 44 | 1007.9 |
| 20260504172108 | 70 | 186 | 5.0 | 7.0 | 0.00 | 0.00 | 0.00 | 45 | 1008.0 |
| 20260504171604 | 69 | 176 | 4.0 | 5.0 | 0.00 | 0.00 | 0.00 | 45 | 1008.1 |
| 20260504171102 | 70 | 206 | 5.0 | 7.0 | 0.00 | 0.00 | 0.00 | 45 | 1008.0 |
| 20260504170557 | 69 | 152 | 5.0 | 7.0 | 0.00 | 0.00 | 0.00 | 46 | 1008.2 |
| 20260504150941 | 66 | 116 | 3.0 | 5.0 | 0.00 | 0.00 | 0.00 | 48 | 1009.3 |
| 20260504150438 | 66 | 273 | 2.0 | 2.0 | 0.00 | 0.00 | 0.00 | 50 | 1009.2 |
| 20260504140904 | 63 | 158 | 0.0 | 0.0 | 0.00 | 0.00 | 0.00 | 48 | 1009.4 |
| 20260504140400 | 62 | 46 | 1.0 | 1.0 | 0.00 | 0.00 | 0.00 | 50 | 1009.5 |
| 20260504130325 | 59 | 189 | 2.0 | 3.0 | 0.00 | 0.00 | 0.00 | 53 | 1009.6 |
| 20260504120249 | 55 | 65 | 1.0 | 2.0 | 0.00 | 0.00 | 0.00 | 57 | 1010.0 |
| 20260504110716 | 51 | 167 | 1.0 | 1.0 | 0.00 | 0.00 | 0.00 | 61 | 1009.5 |
| 20260504110212 | 51 | 120 | 1.0 | 2.0 | 0.00 | 0.00 | 0.00 | 61 | 1009.4 |
| 20260504100136 | 50 | 106 | 1.0 | 1.0 | 0.00 | 0.00 | 0.00 | 60 | 1009.5 |
| 20260504081529 | 51 | 246 | 1.0 | 2.0 | 0.00 | 0.00 | 0.00 | 57 | 1010.4 |
| 20260504081025 | 51 | 86 | 1.0 | 1.0 | 0.00 | 0.00 | 0.00 | 56 | 1010.4 |
| 20260504080522 | 51 | 182 | 0.0 | 0.0 | 0.00 | 0.00 | 0.00 | 56 | 1010.5 |
| 20260504050334 | 50 | 158 | 1.0 | 1.0 | 0.00 | 0.00 | 0.00 | 60 | 1012.7 |
| 20260504045831 | 50 | 170 | 4.0 | 5.0 | 0.00 | 0.00 | 0.00 | 60 | 1012.6 |
| 20260504045326 | 50 | 218 | 1.0 | 1.0 | 0.00 | 0.00 | 0.00 | 60 | 1012.8 |
| 20260504044823 | 50 | 152 | 0.0 | 1.0 | 0.00 | 0.00 | 0.00 | 60 | 1012.7 |
| 20260504044321 | 50 | 184 | 0.0 | 0.0 | 0.00 | 0.00 | 0.00 | 60 | 1012.8 |
| 20260504043818 | 50 | 206 | 2.0 | 3.0 | 0.00 | 0.00 | 0.00 | 59 | 1012.8 |
| 20260504043315 | 50 | 193 | 1.0 | 1.0 | 0.00 | 0.00 | 0.00 | 60 | 1013.0 |
| 20260504042812 | 50 | 76 | 0.0 | 1.0 | 0.00 | 0.00 | 0.00 | 59 | 1013.0 |
| 20260504042309 | 50 | 107 | 0.0 | 0.0 | 0.00 | 0.00 | 0.00 | 59 | 1012.9 |
| 20260504041805 | 51 | 53 | 1.0 | 2.0 | 0.00 | 0.00 | 0.00 | 58 | 1013.3 |
| 20260504041301 | 51 | 188 | 1.0 | 2.0 | 0.00 | 0.00 | 0.00 | 58 | 1013.0 |
| 20260504040758 | 51 | 201 | 4.0 | 5.0 | 0.00 | 0.00 | 0.00 | 57 | 1013.0 |
| 20260504040255 | 51 | 165 | 2.0 | 3.0 | 0.00 | 0.00 | 0.00 | 58 | 1013.0 |
| 20260504035751 | 51 | 203 | 1.0 | 1.0 | 0.00 | 0.00 | 0.00 | 57 | 1013.3 |
| 20260504035248 | 51 | 145 | 0.0 | 0.0 | 0.00 | 0.00 | 0.00 | 57 | 1013.2 |
| 20260504034745 | 51 | 172 | 2.0 | 2.0 | 0.00 | 0.00 | 0.00 | 57 | 1013.3 |
| 20260504034243 | 51 | 159 | 1.0 | 1.0 | 0.00 | 0.00 | 0.00 | 58 | 1013.4 |
| 20260504033740 | 51 | 146 | 1.0 | 1.0 | 0.00 | 0.00 | 0.00 | 57 | 1013.3 |
| 20260504033238 | 51 | 162 | 0.0 | 0.0 | 0.00 | 0.00 | 0.00 | 57 | 1013.5 |
| 20260504032734 | 51 | 218 | 1.0 | 2.0 | 0.00 | 0.00 | 0.00 | 57 | 1013.4 |
| 20260504032231 | 51 | 139 | 0.0 | 1.0 | 0.00 | 0.00 | 0.00 | 58 | 1013.5 |
| 20260504031728 | 51 | 191 | 2.0 | 2.0 | 0.00 | 0.00 | 0.00 | 57 | 1013.7 |
| 20260504031226 | 51 | 167 | 1.0 | 1.0 | 0.00 | 0.00 | 0.00 | 56 | 1013.6 |
| 20260504030721 | 51 | 134 | 1.0 | 1.0 | 0.00 | 0.00 | 0.00 | 57 | 1013.7 |
| 20260504030219 | 51 | 169 | 3.0 | 5.0 | 0.00 | 0.00 | 0.00 | 57 | 1013.7 |
| 20260504025715 | 51 | 151 | 0.0 | 0.0 | 0.00 | 0.00 | 0.00 | 58 | 1013.8 |
| 20260504025212 | 51 | 179 | 2.0 | 2.0 | 0.00 | 0.00 | 0.00 | 57 | 1013.9 |
| 20260504024709 | 51 | 161 | 1.0 | 1.0 | 0.00 | 0.00 | 0.00 | 58 | 1013.8 |
| 20260504024205 | 51 | 70 | 1.0 | 1.0 | 0.00 | 0.00 | 0.00 | 58 | 1013.8 |
| 20260504023702 | 51 | 157 | 1.0 | 1.0 | 0.00 | 0.00 | 0.00 | 59 | 1014.0 |
| 20260504023158 | 51 | 169 | 0.0 | 0.0 | 0.00 | 0.00 | 0.00 | 58 | 1013.9 |
| 20260504022654 | 51 | 342 | 0.0 | 0.0 | 0.00 | 0.00 | 0.00 | 58 | 1014.1 |
| 20260504022150 | 51 | 110 | 0.0 | 0.0 | 0.00 | 0.00 | 0.00 | 58 | 1014.0 |
| 20260504021649 | 51 | 178 | 2.0 | 2.0 | 0.00 | 0.00 | 0.00 | 58 | 1014.0 |
| 20260504021145 | 51 | 253 | 2.0 | 2.0 | 0.00 | 0.00 | 0.00 | 57 | 1014.2 |
| 20260504020642 | 51 | 289 | 2.0 | 1.0 | 0.00 | 0.00 | 0.00 | 57 | 1014.1 |
| 20260504020138 | 51 | 6 | 1.0 | 2.0 | 0.00 | 0.00 | 0.00 | 56 | 1014.2 |
| 20260504015635 | 51 | 158 | 1.0 | 1.0 | 0.00 | 0.00 | 0.00 | 55 | 1014.1 |
| 20260504015131 | 52 | 346 | 5.0 | 6.0 | 0.00 | 0.00 | 0.00 | 53 | 1013.9 |
| 20260504014627 | 52 | 200 | 2.0 | 3.0 | 0.00 | 0.00 | 0.00 | 52 | 1014.1 |
| 20260504014124 | 51 | 321 | 4.0 | 5.0 | 0.00 | 0.00 | 0.00 | 51 | 1013.9 |
| 20260504013622 | 49 | 334 | 2.0 | 2.0 | 0.00 | 0.00 | 0.00 | 55 | 1013.9 |
| 20260504013119 | 48 | 20 | 2.0 | 2.0 | 0.00 | 0.00 | 0.00 | 60 | 1013.7 |
| 20260504012616 | 48 | 152 | 0.0 | 0.0 | 0.00 | 0.00 | 0.00 | 61 | 1013.6 |
| 20260504012114 | 49 | 152 | 0.0 | 0.0 | 0.00 | 0.00 | 0.00 | 58 | 1013.4 |
| 20260504011611 | 50 | 152 | 0.0 | 1.0 | 0.00 | 0.00 | 0.00 | 55 | 1013.4 |
| 20260504011107 | 50 | 152 | 0.0 | 0.0 | 0.00 | 0.00 | 0.00 | 54 | 1013.4 |
| 20260504010602 | 51 | 152 | 0.0 | 0.0 | 0.00 | 0.00 | 0.00 | 51 | 1013.3 |
| 20260504010059 | 51 | 152 | 0.0 | 0.0 | 0.00 | 0.00 | 0.00 | 49 | 1013.6 |
| 20260504005555 | 52 | 152 | 0.0 | 0.0 | 0.00 | 0.00 | 0.00 | 49 | 1013.6 |
| 20260504005053 | 52 | 152 | 0.0 | 0.0 | 0.00 | 0.00 | 0.00 | 48 | 1013.6 |
| 20260504004551 | 53 | 126 | 0.0 | 0.0 | 0.00 | 0.00 | 0.00 | 46 | 1013.5 |
| 20260504004047 | 53 | 178 | 0.0 | 0.0 | 0.00 | 0.00 | 0.00 | 45 | 1013.3 |
| 20260504003543 | 54 | 178 | 0.0 | 0.0 | 0.00 | 0.00 | 0.00 | 44 | 1013.3 |
| 20260504003040 | 55 | 172 | 1.0 | 1.0 | 0.00 | 0.00 | 0.00 | 42 | 1013.2 |